[[{"header":{"parameterUnit":"m.s-1","parameterCategory":1,"la1":30.2991,"la2":30.254,"lo1":-89.0895,"lo2":-89.0444,"dx":0.0017,"dy":0.0017,"nx":28,"ny":28,"refTime":"2023-01-27T09:00:00:Z","depth":0,"parameterNumber":2,"parameterNumberName":"U-component_of_WINDS"},"data":[0,0,0,0,0,0,0,0,0,0,0,0,0,0,0,0,0,0,0,0,0,0,0,0,0,0,0,0,0,0,0,0,0,0,0,0,0,0,0,0,0,0,0,0,0,0,0,0,0,0,0,0,0,0,0,0,0,0,-0.4311,-0.4312,0,-0.4371,-0.4372,-0.4372,-0.4366,-0.4365,-0.4364,-0.4364,-0.4426,-0.4428,-0.4431,0,0,0,0,0,0,0,0,0,0,0,0,0,-0.4192,-0.4194,-0.4311,-0.4312,-0.4313,-0.4371,-0.4372,-0.4373,-0.4366,-0.4365,-0.4364,-0.4363,-0.4425,-0.4428,-0.4431,0,0,0,0,0,0,0,0,0,0,0,0,0,-0.4247,-0.4195,-0.4311,-0.4317,-0.4318,-0.4371,-0.4372,-0.4373,-0.4367,-0.4365,-0.4364,-0.4363,-0.4424,-0.4428,-0.4432,-0.4483,0,0,-0.4443,-0.4445,0,0,0,0,0,0,0,0,-0.4244,-0.4252,-0.4315,-0.4316,-0.4318,-0.436,-0.4353,-0.441,-0.4367,-0.4348,-0.4363,-0.4362,-0.4405,-0.441,-0.4425,-0.4486,-0.4489,-0.4444,-0.4446,-0.4447,-0.4449,0,0,0,0,0,0,0,-0.424,-0.4249,-0.4335,-0.4316,-0.4318,-0.4316,-0.4323,-0.4363,-0.4384,-0.435,-0.4349,-0.4356,-0.4406,-0.4421,-0.4426,-0.449,-0.4443,-0.4447,-0.4449,-0.4451,-0.4596,-0.4597,0,0,0,0,0,0,-0.4235,-0.4246,-0.4333,-0.4337,-0.4277,-0.432,-0.4327,-0.4348,-0.4383,-0.4387,-0.4358,-0.4356,-0.4415,-0.4422,-0.4428,-0.4491,-0.4447,-0.4451,-0.4453,-0.4594,-0.4596,-0.4598,0,0,0,0,0,0,-0.4232,-0.4243,-0.4331,-0.4291,-0.4302,-0.4323,-0.4347,-0.435,-0.4365,-0.4389,-0.4393,-0.437,-0.4414,-0.4423,-0.4469,-0.4493,-0.4453,-0.4456,-0.4593,-0.4595,-0.4597,-0.4617,0,0,0,0,0,0,-0.4229,-0.4242,-0.4262,-0.4292,-0.4304,-0.4371,-0.4348,-0.4352,-0.4372,-0.437,-0.4402,-0.4406,-0.4414,-0.4464,-0.4473,-0.4498,-0.4459,-0.4591,-0.4594,-0.4596,-0.4615,-0.462,-0.4625,0,0,0,0,0,-0.4225,-0.4266,-0.4263,-0.4274,-0.433,-0.4372,-0.438,-0.4388,-0.4374,-0.4394,-0.4409,-0.4405,-0.4489,-0.4469,-0.4479,-0.4505,-0.4589,-0.4593,-0.4596,-0.4612,-0.4619,-0.4625,0,0,0,0,0,0,-0.4239,-0.427,-0.4267,-0.4319,-0.4343,-0.4371,-0.4397,-0.4395,-0.4424,-0.4421,-0.4431,-0.4438,-0.4485,-0.4499,-0.4476,-0.4557,-0.4537,-0.4543,-0.4546,-0.4552,-0.4557,-0.4553,-0.4462,0,0,0,0,0,-0.4248,-0.428,-0.4305,-0.4348,-0.436,-0.4376,-0.4395,-0.4399,-0.4425,-0.4435,-0.4454,-0.4479,-0.4511,-0.4532,-0.4563,-0.4616,-0.4623,-0.4639,-0.4644,-0.4648,-0.4654,-0.4682,-0.469,-0.461,-0.461,-0.461,0,0,-0.4268,-0.4288,-0.4308,-0.4351,-0.4371,-0.4403,-0.4385,-0.4421,-0.4445,-0.4441,-0.4486,-0.45,-0.4529,-0.4579,-0.4602,-0.4593,-0.4677,-0.4653,-0.4656,-0.4659,-0.4687,-0.4694,-0.4701,-0.4612,-0.4612,-0.4611,0,0,-0.432,-0.4338,-0.4376,-0.4395,-0.4424,-0.4434,-0.4443,-0.4472,-0.4481,-0.4526,-0.4523,-0.4552,-0.4607,-0.4628,-0.4645,-0.4703,-0.47,-0.4712,-0.474,-0.4767,-0.4774,-0.4779,-0.48,-0.4808,-0.4717,-0.4718,-0.4718,0,-0.434,-0.4389,-0.4396,-0.4432,-0.4451,-0.4447,-0.4486,-0.4504,-0.4542,-0.4555,-0.4544,-0.4612,-0.4631,-0.4686,-0.4699,-0.4714,-0.4724,-0.471,-0.4772,-0.4778,-0.4783,-0.4803,-0.4811,-0.4719,-0.4719,-0.4719,-0.4718,0,-0.4413,-0.4447,-0.4474,-0.451,-0.4532,-0.4569,-0.4581,-0.4603,-0.4604,-0.4616,-0.4661,-0.4683,-0.4718,-0.4731,-0.4734,-0.4786,-0.4779,-0.477,-0.4751,-0.4792,-0.4811,-0.4819,-0.4721,-0.472,-0.472,-0.472,0,0,-0.4478,-0.4516,-0.4526,-0.4541,-0.4572,-0.4599,-0.4635,-0.4668,-0.4687,-0.4712,-0.4743,-0.4789,-0.478,-0.48,-0.4804,-0.4828,-0.4873,-0.4816,-0.4817,-0.4826,-0.4931,-0.4939,-0.4948,-0.487,-0.4872,-0.4873,-0.4929,0,-0.4534,-0.4598,-0.4604,-0.4662,-0.4693,-0.4689,-0.4721,-0.4743,-0.4754,-0.4782,-0.4794,-0.4827,-0.4812,-0.4824,-0.4848,-0.4862,-0.4894,-0.4858,-0.4899,-0.4901,-0.4893,-0.4958,-0.4966,-0.5018,-0.4937,-0.4938,-0.4939,0,-0.4608,-0.4635,-0.4695,-0.4721,-0.4734,-0.4762,-0.4793,-0.482,-0.4845,-0.4851,-0.4872,-0.4873,-0.491,-0.4888,-0.4939,-0.4914,-0.4931,-0.494,-0.4943,-0.4948,-0.4923,-0.4965,-0.5035,-0.5043,-0.495,-0.495,-0.4949,0,-0.465,-0.4701,-0.4744,-0.4757,-0.4788,-0.4808,-0.4821,-0.4845,-0.4864,-0.4891,-0.4903,-0.4934,-0.4951,-0.4975,-0.4984,-0.4967,-0.5034,-0.5013,-0.5041,-0.5041,-0.5057,-0.5056,-0.5131,-0.5066,-0.5066,-0.5066,-0.5065,0,-0.4712,-0.475,-0.4763,-0.4789,-0.4831,-0.4837,-0.4878,-0.489,-0.4911,-0.4939,-0.4937,-0.4964,-0.4974,-0.5002,-0.5009,-0.505,-0.5058,-0.5064,-0.5066,-0.5065,-0.5064,-0.5077,-0.5074,-0.5068,-0.5067,-0.5067,-0.5066,0,-0.4767,-0.4777,-0.4823,-0.4848,-0.4855,-0.4884,-0.4905,-0.4931,-0.494,-0.4977,-0.4985,-0.5001,-0.5034,-0.5045,-0.5085,-0.5089,-0.5138,-0.5136,-0.513,-0.513,-0.5158,-0.5155,-0.5245,-0.5257,-0.5183,-0.5184,-0.5184,0,-0.4807,-0.4835,-0.4862,-0.4881,-0.4895,-0.4925,-0.4945,-0.4951,-0.4972,-0.5001,-0.5023,-0.5055,-0.5082,-0.5135,-0.515,-0.5181,-0.518,-0.5209,-0.5185,-0.5183,-0.5181,-0.518,-0.5183,-0.5214,-0.5215,-0.5216,-0.5216,0,-0.4876,-0.4879,-0.4907,-0.4937,-0.496,-0.4984,-0.5006,-0.5022,-0.5032,-0.5054,-0.5088,-0.5109,-0.5149,-0.5181,-0.5212,-0.5226,-0.5223,-0.5223,-0.5232,-0.5232,-0.5227,-0.523,-0.5143,-0.5222,-0.5221,-0.5221,-0.522,-0.522,-0.4925,-0.495,-0.4972,-0.5003,-0.5021,-0.5042,-0.5067,-0.5079,-0.5107,-0.514,-0.5142,-0.5178,-0.5201,-0.5242,-0.5257,-0.5285,-0.5277,-0.5289,-0.5292,-0.5295,-0.5297,-0.5221,-0.5291,-0.5291,-0.5291,-0.529,-0.529,0,-0.4995,-0.5009,-0.5037,-0.5069,-0.5093,-0.5086,-0.5111,-0.5132,-0.5163,-0.5184,-0.521,-0.5248,-0.5279,-0.5296,-0.5327,-0.5346,-0.5345,-0.5354,-0.5353,-0.5357,-0.5303,-0.5293,-0.5354,-0.5354,-0.5354,-0.5354,-0.5354,-0.5354,-0.5034,-0.5076,-0.5082,-0.5132,-0.5145,-0.518,-0.5195,-0.5214,-0.5231,-0.5273,-0.5299,-0.5309,-0.5328,-0.536,-0.5388,-0.5392,-0.5404,-0.5414,-0.5417,-0.5367,-0.536,-0.5354,-0.5345,-0.5416,-0.5416,-0.5468,-0.5469,-0.5469]},{"header":{"parameterUnit":"m.s-1","parameterCategory":1,"la1":30.2991,"la2":30.254,"lo1":-89.0895,"lo2":-89.0444,"dx":0.0017,"dy":0.0017,"nx":28,"ny":28,"refTime":"2023-01-27T09:00:00:Z","depth":0,"parameterNumber":3,"parameterNumberName":"V-component_of_WINDS"},"data":[0,0,0,0,0,0,0,0,0,0,0,0,0,0,0,0,0,0,0,0,0,0,0,0,0,0,0,0,0,0,0,0,0,0,0,0,0,0,0,0,0,0,0,0,0,0,0,0,0,0,0,0,0,0,0,0,0,0,-4.1476,-4.1477,0,-4.1607,-4.1609,-4.161,-4.1559,-4.1556,-4.1553,-4.155,-4.1681,-4.1687,-4.1694,0,0,0,0,0,0,0,0,0,0,0,0,0,-4.1177,-4.1182,-4.1476,-4.1477,-4.1479,-4.1607,-4.1609,-4.1611,-4.156,-4.1556,-4.1552,-4.1549,-4.1679,-4.1687,-4.1694,0,0,0,0,0,0,0,0,0,0,0,0,0,-4.1307,-4.1184,-4.1476,-4.1469,-4.147,-4.1607,-4.1609,-4.1611,-4.156,-4.1556,-4.1551,-4.1547,-4.1677,-4.1686,-4.1695,-4.1845,0,0,-4.1724,-4.1729,0,0,0,0,0,0,0,0,-4.13,-4.1318,-4.1468,-4.147,-4.1471,-4.1562,-4.1551,-4.169,-4.1562,-4.1526,-4.155,-4.1545,-4.1645,-4.1657,-4.1692,-4.1851,-4.1857,-4.1725,-4.1731,-4.1735,-4.1738,0,0,0,0,0,0,0,-4.1291,-4.1312,-4.1528,-4.1471,-4.1472,-4.1458,-4.1472,-4.1577,-4.1609,-4.1529,-4.1525,-4.1542,-4.1645,-4.1683,-4.1694,-4.1859,-4.1725,-4.1733,-4.1739,-4.1743,-4.2147,-4.2152,0,0,0,0,0,0,-4.1282,-4.1305,-4.1524,-4.1532,-4.1372,-4.1467,-4.1483,-4.1537,-4.1608,-4.1615,-4.1545,-4.1539,-4.1669,-4.1683,-4.1699,-4.1879,-4.1735,-4.1744,-4.1749,-4.2142,-4.2149,-4.2154,0,0,0,0,0,0,-4.1276,-4.1302,-4.1518,-4.1418,-4.1444,-4.1478,-4.154,-4.1542,-4.158,-4.1621,-4.1626,-4.1578,-4.1666,-4.1685,-4.1809,-4.1882,-4.1748,-4.1757,-4.2137,-4.2144,-4.2151,-4.224,0,0,0,0,0,0,-4.1267,-4.13,-4.1358,-4.1419,-4.145,-4.1628,-4.1544,-4.1548,-4.1597,-4.159,-4.1653,-4.1659,-4.1663,-4.1795,-4.1819,-4.1893,-4.1764,-4.213,-4.214,-4.2149,-4.2231,-4.225,-4.2266,0,0,0,0,0,-4.1257,-4.1377,-4.1362,-4.1388,-4.1524,-4.1633,-4.165,-4.1653,-4.1603,-4.1661,-4.1687,-4.1657,-4.1871,-4.1809,-4.1834,-4.1913,-4.2126,-4.2137,-4.2148,-4.2223,-4.2246,-4.2266,0,0,0,0,0,0,-4.1323,-4.1385,-4.1368,-4.1513,-4.1568,-4.1624,-4.1698,-4.1678,-4.1748,-4.1738,-4.1738,-4.1752,-4.188,-4.1909,-4.1838,-4.2061,-4.199,-4.2007,-4.2038,-4.2061,-4.2078,-4.2068,-4.1772,0,0,0,0,0,-4.1355,-4.144,-4.1489,-4.1611,-4.164,-4.1664,-4.1712,-4.171,-4.1766,-4.1789,-4.1824,-4.1879,-4.1959,-4.2011,-4.2086,-4.2234,-4.2247,-4.2301,-4.2318,-4.2333,-4.2347,-4.2427,-4.2452,-4.2191,-4.2191,-4.2191,0,0,-4.1421,-4.1465,-4.1518,-4.1626,-4.1668,-4.1755,-4.1684,-4.1779,-4.1842,-4.1803,-4.1923,-4.195,-4.2012,-4.2148,-4.221,-4.2176,-4.2422,-4.2347,-4.2358,-4.2365,-4.2441,-4.2466,-4.2488,-4.2199,-4.2198,-4.2196,0,0,-4.1585,-4.1628,-4.1734,-4.1778,-4.1844,-4.1859,-4.1885,-4.1944,-4.1961,-4.2081,-4.2053,-4.2128,-4.2265,-4.231,-4.2351,-4.2531,-4.2506,-4.2556,-4.2648,-4.2726,-4.2746,-4.2764,-4.2829,-4.2852,-4.257,-4.257,-4.2571,0,-4.1659,-4.1789,-4.1791,-4.1889,-4.1936,-4.1905,-4.2012,-4.2054,-4.2141,-4.2174,-4.2134,-4.2305,-4.2344,-4.2491,-4.2535,-4.2569,-4.2597,-4.2549,-4.2743,-4.2761,-4.2778,-4.284,-4.2864,-4.2576,-4.2575,-4.2575,-4.2574,0,-4.1876,-4.1967,-4.2045,-4.213,-4.2186,-4.2288,-4.2304,-4.2361,-4.2353,-4.2372,-4.2494,-4.254,-4.2624,-4.2658,-4.2652,-4.2804,-4.2781,-4.2742,-4.2671,-4.2809,-4.2866,-4.289,-4.2584,-4.2582,-4.258,-4.2579,0,0,-4.2087,-4.2172,-4.2201,-4.2239,-4.2309,-4.2378,-4.2478,-4.2561,-4.2609,-4.2669,-4.2752,-4.2868,-4.2833,-4.2879,-4.2877,-4.2946,-4.3085,-4.2899,-4.29,-4.2932,-4.3255,-4.3284,-4.3311,-4.3068,-4.3073,-4.3077,-4.325,0,-4.2257,-4.2434,-4.2438,-4.2599,-4.2682,-4.2654,-4.274,-4.2791,-4.2811,-4.2884,-4.2905,-4.2988,-4.2935,-4.2963,-4.3029,-4.3054,-4.315,-4.3042,-4.3145,-4.3149,-4.3131,-4.3341,-4.3372,-4.3534,-4.3273,-4.3276,-4.3279,0,-4.248,-4.2548,-4.2718,-4.2775,-4.281,-4.2888,-4.2964,-4.3034,-4.3091,-4.3101,-4.3153,-4.314,-4.324,-4.3166,-4.3303,-4.3229,-4.3271,-4.329,-4.3296,-4.3306,-4.3223,-4.3357,-4.3586,-4.361,-4.3315,-4.3312,-4.3309,0,-4.2617,-4.2751,-4.287,-4.2903,-4.2973,-4.3028,-4.306,-4.3112,-4.3162,-4.3228,-4.3259,-4.3336,-4.3378,-4.3436,-4.3444,-4.3389,-4.3582,-4.3508,-4.3592,-4.3592,-4.3635,-4.3632,-4.3874,-4.3662,-4.3661,-4.3661,-4.366,0,-4.2806,-4.2911,-4.2932,-4.3006,-4.3122,-4.3125,-4.3239,-4.3266,-4.3313,-4.339,-4.3369,-4.3441,-4.3447,-4.3521,-4.3527,-4.364,-4.3659,-4.3669,-4.3669,-4.3671,-4.367,-4.3699,-4.3688,-4.3667,-4.3666,-4.3664,-4.3663,0,-4.2979,-4.2998,-4.3126,-4.3181,-4.3197,-4.3281,-4.3328,-4.3397,-4.3414,-4.3512,-4.3535,-4.3562,-4.3648,-4.3662,-4.3762,-4.3766,-4.3901,-4.389,-4.3883,-4.3881,-4.3965,-4.3957,-4.4234,-4.427,-4.4034,-4.4036,-4.4038,0,-4.31,-4.318,-4.3244,-4.3295,-4.3329,-4.3411,-4.3462,-4.3467,-4.352,-4.3591,-4.3651,-4.3735,-4.3803,-4.3941,-4.3969,-4.4045,-4.4036,-4.4128,-4.4047,-4.4046,-4.4038,-4.4033,-4.4041,-4.4143,-4.4146,-4.4148,-4.415,0,-4.3311,-4.3316,-4.3391,-4.3469,-4.353,-4.3591,-4.3648,-4.369,-4.3703,-4.3764,-4.3852,-4.3904,-4.4007,-4.409,-4.4166,-4.4197,-4.4176,-4.4175,-4.4198,-4.4201,-4.4194,-4.4199,-4.3925,-4.4168,-4.4166,-4.4165,-4.4164,-4.4163,-4.3462,-4.3532,-4.3588,-4.3671,-4.3715,-4.377,-4.3837,-4.3864,-4.3938,-4.4023,-4.4021,-4.4118,-4.4171,-4.4271,-4.4307,-4.4381,-4.4352,-4.4386,-4.4394,-4.4403,-4.4411,-4.4181,-4.4395,-4.4394,-4.4394,-4.4394,-4.4393,0,-4.3672,-4.3707,-4.3784,-4.3865,-4.3931,-4.3906,-4.3968,-4.4024,-4.411,-4.4162,-4.4229,-4.433,-4.441,-4.4445,-4.4523,-4.4577,-4.4569,-4.4597,-4.4594,-4.4601,-4.4433,-4.4405,-4.4602,-4.4602,-4.4602,-4.4602,-4.4602,-4.4602,-4.379,-4.3907,-4.3918,-4.4056,-4.4089,-4.4185,-4.4223,-4.4272,-4.4314,-4.4428,-4.4496,-4.4518,-4.4563,-4.4644,-4.4716,-4.4724,-4.4754,-4.4787,-4.4791,-4.4634,-4.4613,-4.4593,-4.4566,-4.4794,-4.4794,-4.4952,-4.4954,-4.4955]}]]